Weather History for Belfast, United Kingdom

Change the Weather History Date:

Tuesday, January 15, 2013

  Actual Average Record
Temperature  
Mean Temperature 36 °F -  
Max Temperature 40 °F 44 °F 53 °F (2005)
Min Temperature 33 °F 34 °F 24 °F (2000)
Degree Days  
Heating Degree Days 28    
Moisture  
Dew Point 35 °F    
Average Humidity 94    
Maximum Humidity 100    
Minimum Humidity 76    
Precipitation  
Precipitation 0.00 in 0.09 in - ()
Sea Level Pressure  
Sea Level Pressure 29.85 in    
Wind  
Wind Speed 5 mph ()    
Max Wind Speed 15 mph    
Max Gust Speed -    
Visibility 7.4 miles    
Events Rain    
Averages and records for this station are not official NWS values.
T = Trace of Precipitation, MM = Missing Value Source: Averaged Metar Reports

Daily Weather History Graph

Daily Weather History Graph

Search for Another Location

Airport:

Trip Planner

Search our weather history database for the weather conditions in past years. The results will help you decide how hot, cold, wet, or windy it might be!

Date:

Astronomy

Jan. 15, 2013 Rise Set
Actual Time 8:38 AM GMT 4:30 PM GMT
Civil Twilight 7:56 AM GMT 5:13 PM GMT
Nautical Twilight 7:10 AM GMT 5:58 PM GMT
Astronomical Twilight 6:27 AM GMT 6:41 PM GMT
Moon 9:48 AM GMT (1/15) 9:59 PM GMT (1/15)
Length of Visible Light 9h 16m
Length of Day
7h 51m
Waxing Crescent, 17% of the Moon is Illuminated
Jan 15
Waxing Crescent
Jan 18
First Quarter
Jan 27
Full
Feb 3
Last Quarter
Feb 10
New

Hourly Weather History & Observations

Time (GMT) Temp. Windchill Dew Point Humidity Pressure Visibility Wind Dir Wind Speed Gust Speed Precip Events Conditions
12:20 AM 37.4 °F 32.1 °F 35.6 °F 93% 29.89 in 6.2 mi NNW 6.9 mph - N/A   Mostly Cloudy
12:50 AM 37.4 °F 33.8 °F 35.6 °F 93% 29.89 in 6.2 mi West 4.6 mph - N/A   Mostly Cloudy
1:20 AM 37.4 °F 32.1 °F 37.4 °F 100% 29.89 in 6.2 mi NW 6.9 mph - N/A Rain Light Rain Showers
1:50 AM 37.4 °F 30.8 °F 35.6 °F 93% 29.89 in 6.2 mi North 9.2 mph - N/A Rain Light Rain Showers
2:20 AM 37.4 °F - 33.8 °F 87% 29.89 in 6.2 mi Variable 2.3 mph - N/A   Scattered Clouds
2:50 AM 37 °F - 35 °F 91% 29.90 in 31 mi West 5.8 mph - - Rain Rain
2:50 AM 35.6 °F 29.2 °F 35.6 °F 100% 29.89 in 6.2 mi West 8.1 mph - N/A   Scattered Clouds
3:20 AM 35.6 °F - 33.8 °F 93% 29.89 in 6.2 mi SW 2.3 mph - N/A   Mostly Cloudy
3:50 AM 33.8 °F 29.6 °F 33.8 °F 100% 29.89 in 6.2 mi WNW 4.6 mph - N/A   Unknown
4:20 AM 33.8 °F 29.6 °F 33.8 °F 100% 29.89 in 6.2 mi SW 4.6 mph - N/A   Unknown
4:50 AM 33.8 °F 27.7 °F 33.8 °F 100% 29.89 in 5.6 mi West 6.9 mph - N/A Rain Light Rain
5:20 AM 35.6 °F 31.7 °F 35.6 °F 100% 29.89 in 6.2 mi WNW 4.6 mph - N/A   Mostly Cloudy
5:50 AM 35 °F - 34 °F 93% 29.90 in 14 mi West 3.5 mph - - Rain Rain
5:50 AM 33.8 °F - 33.8 °F 100% 29.89 in 6.2 mi Calm Calm - N/A   Partly Cloudy
6:20 AM 33.8 °F 29.6 °F 33.8 °F 100% 29.89 in 6.2 mi WNW 4.6 mph - N/A   Scattered Clouds
6:50 AM 33.8 °F 29.6 °F 33.8 °F 100% 29.89 in 6.2 mi West 4.6 mph - N/A   Partly Cloudy
7:20 AM 33.8 °F 28.6 °F 33.8 °F 100% 29.89 in 6.2 mi West 5.8 mph - N/A   Partly Cloudy
7:50 AM 33.8 °F 29.6 °F 33.8 °F 100% 29.89 in 6.2 mi WSW 4.6 mph - N/A   Scattered Clouds
8:20 AM 33.8 °F - 33.8 °F 100% 29.89 in 6.2 mi Variable 2.3 mph - N/A   Scattered Clouds
8:50 AM 35 °F - 34 °F 92% 29.91 in 12 mi South 2.3 mph - -   Partly Cloudy
8:50 AM 33.8 °F - 33.8 °F 100% 29.89 in 6.2 mi Variable 2.3 mph - N/A   Scattered Clouds
9:20 AM 33.8 °F - 33.8 °F 100% 29.89 in 6.2 mi Variable 2.3 mph - N/A   Scattered Clouds
9:50 AM 33.8 °F - 33.8 °F 100% 29.89 in 6.2 mi South 2.3 mph - N/A   Scattered Clouds
10:20 AM 35.6 °F 32.8 °F 35.6 °F 100% 29.89 in 6.2 mi SSW 3.5 mph - N/A   Scattered Clouds
10:50 AM 35.6 °F 32.8 °F 35.6 °F 100% 29.89 in 6.2 mi SSE 3.5 mph - N/A   Scattered Clouds
11:20 AM 37.4 °F 33.8 °F 37.4 °F 100% 29.89 in 6.2 mi SW 4.6 mph - N/A   Scattered Clouds
11:50 AM 39 °F - 36 °F 83% 29.89 in 22 mi West 3.5 mph - -  
11:50 AM 39.2 °F 35.9 °F 39.2 °F 100% 29.89 in 6.2 mi WSW 4.6 mph - N/A   Partly Cloudy
12:20 PM 39.2 °F 35.9 °F 39.2 °F 100% 29.89 in 6.2 mi WSW 4.6 mph - N/A   Partly Cloudy
12:50 PM 39.2 °F - 37.4 °F 93% 29.86 in 6.2 mi Variable 2.3 mph - N/A   Scattered Clouds
1:20 PM 41.0 °F - 37.4 °F 87% 29.86 in 6.2 mi Variable 2.3 mph - N/A   Mostly Cloudy
1:50 PM 39.2 °F 37.0 °F 37.4 °F 93% 29.86 in 6.2 mi WSW 3.5 mph - N/A   Scattered Clouds
2:20 PM 39.2 °F - 37.4 °F 93% 29.86 in 6.2 mi Variable 2.3 mph - N/A   Scattered Clouds
2:50 PM 39 °F - 36 °F 86% 29.86 in 19 mi ESE 4.6 mph - -  
2:50 PM 39.2 °F 35.9 °F 37.4 °F 93% 29.83 in 6.2 mi ESE 4.6 mph - N/A   Partly Cloudy
3:20 PM 37.4 °F 33.8 °F 35.6 °F 93% 29.83 in 6.2 mi East 4.6 mph - N/A   Scattered Clouds
3:50 PM 37.4 °F 33.8 °F 35.6 °F 93% 29.83 in 6.2 mi East 4.6 mph - N/A   Partly Cloudy
4:20 PM 35.6 °F 31.7 °F 35.6 °F 100% 29.83 in 6.2 mi East 4.6 mph - N/A   Scattered Clouds
4:50 PM 37.4 °F 32.8 °F 35.6 °F 93% 29.83 in 6.2 mi SE 5.8 mph - N/A   Scattered Clouds
5:20 PM 35.6 °F 30.7 °F 35.6 °F 100% 29.83 in 6.2 mi ESE 5.8 mph - N/A   Scattered Clouds
5:50 PM 37 °F - 34 °F 85% 29.83 in 18 mi ESE 6.9 mph - -   Mostly Cloudy
5:50 PM 35.6 °F 31.7 °F 33.8 °F 93% 29.83 in 6.2 mi ESE 4.6 mph - N/A   Scattered Clouds
6:20 PM 35.6 °F 30.7 °F 33.8 °F 93% 29.83 in 6.2 mi ESE 5.8 mph - N/A   Mostly Cloudy
6:50 PM 35.6 °F 31.7 °F 33.8 °F 93% 29.80 in 6.2 mi ESE 4.6 mph - N/A   Scattered Clouds
7:20 PM 33.8 °F 29.6 °F 32.0 °F 93% 29.80 in 6.2 mi East 4.6 mph - N/A   Scattered Clouds
7:50 PM 33.8 °F 28.6 °F 32.0 °F 93% 29.80 in 6.2 mi East 5.8 mph - N/A   Scattered Clouds
8:20 PM 35.6 °F 29.9 °F 32.0 °F 87% 29.80 in 6.2 mi East 6.9 mph - N/A   Scattered Clouds
8:50 PM 36 °F - 32 °F 81% 29.81 in 19 mi East 10.4 mph - -   Mostly Cloudy
8:50 PM 35.6 °F 29.9 °F 32.0 °F 87% 29.80 in 6.2 mi East 6.9 mph - N/A   Scattered Clouds
9:20 PM 35.6 °F 29.9 °F 33.8 °F 93% 29.80 in 6.2 mi East 6.9 mph - N/A   Mostly Cloudy
9:50 PM 35.6 °F 29.9 °F 32.0 °F 87% 29.77 in - East 6.9 mph - N/A   Clear
10:20 PM 35.6 °F 29.2 °F 32.0 °F 87% 29.77 in - ESE 8.1 mph - N/A   Clear
10:50 PM 37.4 °F 30.3 °F 32.0 °F 81% 29.77 in - ESE 10.4 mph - N/A   Clear
11:20 PM 37.4 °F 30.3 °F 32.0 °F 81% 29.77 in - ESE 10.4 mph - N/A   Clear
11:50 PM 38 °F - 33 °F 76% 29.76 in 17 mi ESE 15.0 mph - -   Overcast
11:50 PM 37.4 °F 29.8 °F 33.8 °F 87% 29.74 in - ESE 11.5 mph - N/A   Clear